Location: Latina
(41.4670°N, 12.8670°E)
Time: 22:08:30
(UTC+02:00)

ISS - Pass Details

Date: 20 May 2021
Orbit: 417 x 422 km, 51.6° (Epoch: 22 June)

Event Time Altitude Azimuth Distance (km) Brightness Sun altitude
Rises 21:18:45 0° 267° (W) 2,356 0.9 -9.2°
Reaches altitude 10° 21:21:05 10° 282° (WNW) 1,496 0.2 -9.5°
Maximum altitude 21:23:54 24° 339° (NNW) 904 -1.3 -9.9°
Drops below altitude 10° 21:26:45 10° 36° (NE) 1,502 -0.9 -10.3°
Sets 21:29:07 0° 51° (NE) 2,369 -0.1 -10.7°
